JST701 YMML-YMHB

Flight info

Callsign JST701
Flight time 1h 7m
Altitude 35000
Route SUNTI H169 IRSOM V33 MORGO
Aircraft A320/M-SDE3FGHIRWY/LB1

Departure

Time 2026-05-07 20:13
Airport Melbourne Airport (YMML)

Arrival

Time 2026-05-07 21:21
Airport Hobart International Airport (YMHB)
Time Latitude Longitude Altitude Speed Heading
2026-05-07 19:31 -37.67617 144.84844 377 ft 0 kts 351°
2026-05-07 20:01 -37.67618 144.84845 377 ft 2 kts 351°
2026-05-07 20:02 -37.67640 144.84849 376 ft 3 kts 352°
2026-05-07 20:02 -37.67663 144.84853 375 ft 3 kts 352°
2026-05-07 20:02 -37.67686 144.84857 374 ft 3 kts 352°
2026-05-07 20:02 -37.67708 144.84861 373 ft 3 kts 352°
2026-05-07 20:03 -37.67721 144.84864 373 ft 0 kts 352°
2026-05-07 20:03 -37.67708 144.84855 373 ft 3 kts 304°
2026-05-07 20:03 -37.67715 144.84837 373 ft 3 kts 241°
2026-05-07 20:03 -37.67722 144.84811 373 ft 3 kts 253°
2026-05-07 20:04 -37.67727 144.84783 372 ft 3 kts 259°
2026-05-07 20:04 -37.67731 144.84754 372 ft 3 kts 261°
2026-05-07 20:04 -37.67734 144.84726 372 ft 3 kts 262°
2026-05-07 20:04 -37.67736 144.84710 372 ft 1 kts 261°
2026-05-07 20:06 -37.67737 144.84702 371 ft 4 kts 261°
2026-05-07 20:06 -37.67748 144.84635 370 ft 11 kts 249°
2026-05-07 20:07 -37.67817 144.84567 369 ft 15 kts 245°
2026-05-07 20:07 -37.67828 144.84434 370 ft 12 kts 264°
2026-05-07 20:07 -37.67779 144.84377 368 ft 10 kts 349°
2026-05-07 20:07 -37.67713 144.84364 372 ft 9 kts 351°
2026-05-07 20:08 -37.67650 144.84352 371 ft 9 kts 351°
2026-05-07 20:08 -37.67585 144.84340 373 ft 11 kts 351°
2026-05-07 20:08 -37.67501 144.84325 375 ft 13 kts 352°
2026-05-07 20:08 -37.67409 144.84309 378 ft 14 kts 352°
2026-05-07 20:09 -37.67311 144.84290 380 ft 15 kts 351°
2026-05-07 20:09 -37.67203 144.84269 382 ft 17 kts 351°
2026-05-07 20:09 -37.67083 144.84246 384 ft 18 kts 351°
2026-05-07 20:10 -37.66825 144.84197 391 ft 19 kts 351°
2026-05-07 20:10 -37.66718 144.84202 395 ft 15 kts 42°
2026-05-07 20:10 -37.66689 144.84324 393 ft 15 kts 81°
2026-05-07 20:10 -37.66672 144.84458 398 ft 16 kts 81°
2026-05-07 20:11 -37.66654 144.84604 400 ft 17 kts 82°
2026-05-07 20:11 -37.66636 144.84755 402 ft 16 kts 75°
2026-05-07 20:11 -37.66549 144.84801 405 ft 15 kts 353°
2026-05-07 20:11 -37.66448 144.84774 407 ft 15 kts 356°
2026-05-07 20:12 -37.66342 144.84786 412 ft 16 kts
2026-05-07 20:12 -37.66244 144.84795 413 ft 8 kts 356°
2026-05-07 20:12 -37.66224 144.84747 413 ft 2 kts 274°
2026-05-07 20:12 -37.66221 144.84715 413 ft 19 kts 275°
2026-05-07 20:13 -37.66193 144.84224 411 ft 90 kts 275°
2026-05-07 20:13 -37.66134 144.83205 461 ft 135 kts 272°
2026-05-07 20:13 -37.66070 144.82037 1067 ft 134 kts 271°
2026-05-07 20:13 -37.66000 144.80869 1760 ft 133 kts 269°
2026-05-07 20:14 -37.65931 144.79715 2470 ft 131 kts 267°
2026-05-07 20:14 -37.65862 144.78580 3087 ft 129 kts 264°
2026-05-07 20:14 -37.65794 144.77452 3667 ft 130 kts 263°
2026-05-07 20:14 -37.65730 144.76233 3992 ft 151 kts 264°
2026-05-07 20:15 -37.65659 144.74807 4284 ft 174 kts 265°
2026-05-07 20:15 -37.65574 144.73167 4580 ft 200 kts 266°
2026-05-07 20:15 -37.65481 144.71316 4986 ft 223 kts 264°
2026-05-07 20:15 -37.65862 144.69415 5517 ft 229 kts 231°
2026-05-07 20:16 -37.67123 144.68202 6377 ft 233 kts 205°
2026-05-07 20:16 -37.68583 144.67284 7287 ft 236 kts 210°
2026-05-07 20:16 -37.69986 144.66181 8215 ft 239 kts 213°
2026-05-07 20:16 -37.71376 144.65017 9162 ft 241 kts 213°
2026-05-07 20:17 -37.72895 144.64103 10061 ft 246 kts 196°
2026-05-07 20:17 -37.74628 144.63997 10797 ft 259 kts 176°
2026-05-07 20:17 -37.76397 144.64840 11067 ft 294 kts 157°
2026-05-07 20:17 -37.78217 144.66191 11473 ft 310 kts 156°
2026-05-07 20:18 -37.80080 144.67614 12168 ft 316 kts 156°
2026-05-07 20:18 -37.81969 144.69065 12913 ft 320 kts 156°
2026-05-07 20:18 -37.83887 144.70532 13666 ft 324 kts 156°
2026-05-07 20:18 -37.85827 144.72006 14350 ft 328 kts 156°
2026-05-07 20:19 -37.87801 144.73499 14998 ft 331 kts 156°
2026-05-07 20:19 -37.89789 144.75000 15654 ft 335 kts 156°
2026-05-07 20:19 -37.91797 144.76516 16329 ft 337 kts 157°
2026-05-07 20:19 -37.93824 144.78046 16993 ft 340 kts 157°
2026-05-07 20:20 -37.95870 144.79589 17642 ft 344 kts 157°
2026-05-07 20:20 -37.97932 144.81139 18303 ft 347 kts 157°
2026-05-07 20:20 -38.00015 144.82705 18898 ft 350 kts 157°
2026-05-07 20:20 -38.02121 144.84291 19503 ft 353 kts 157°
2026-05-07 20:21 -38.04239 144.85888 20114 ft 356 kts 156°
2026-05-07 20:21 -38.06375 144.87500 20726 ft 359 kts 156°
2026-05-07 20:21 -38.08526 144.89126 21321 ft 361 kts 156°
2026-05-07 20:21 -38.10694 144.90771 21909 ft 364 kts 156°
2026-05-07 20:22 -38.12875 144.92427 22488 ft 367 kts 156°
2026-05-07 20:22 -38.15074 144.94100 23063 ft 370 kts 156°
2026-05-07 20:22 -38.17290 144.95783 23645 ft 373 kts 156°
2026-05-07 20:22 -38.19523 144.97478 24131 ft 375 kts 156°
2026-05-07 20:23 -38.21772 144.99189 24606 ft 377 kts 156°
2026-05-07 20:23 -38.24029 145.00908 25101 ft 379 kts 156°
2026-05-07 20:23 -38.26298 145.02635 25596 ft 380 kts 156°
2026-05-07 20:23 -38.28568 145.04361 26059 ft 381 kts 156°
2026-05-07 20:24 -38.30852 145.06095 26508 ft 383 kts 156°
2026-05-07 20:24 -38.33118 145.07820 26935 ft 385 kts 156°
2026-05-07 20:24 -38.35453 145.09600 27364 ft 387 kts 156°
2026-05-07 20:24 -38.37740 145.11347 27777 ft 389 kts 155°
2026-05-07 20:25 -38.40066 145.13128 28193 ft 391 kts 155°
2026-05-07 20:25 -38.42403 145.14920 28608 ft 393 kts 155°
2026-05-07 20:25 -38.44752 145.16723 29061 ft 394 kts 155°
2026-05-07 20:25 -38.47104 145.18531 29502 ft 395 kts 155°
2026-05-07 20:26 -38.49468 145.20346 29905 ft 397 kts 156°
2026-05-07 20:26 -38.51934 145.21863 30287 ft 392 kts 165°
2026-05-07 20:26 -38.54510 145.23007 30616 ft 393 kts 166°
2026-05-07 20:26 -38.57100 145.24140 30940 ft 394 kts 166°
2026-05-07 20:27 -38.59702 145.25278 31250 ft 396 kts 166°
2026-05-07 20:27 -38.62320 145.26426 31565 ft 398 kts 166°
2026-05-07 20:27 -38.64939 145.27576 31986 ft 397 kts 166°
2026-05-07 20:27 -38.67545 145.28725 32484 ft 395 kts 166°
2026-05-07 20:28 -38.70133 145.29869 32973 ft 392 kts 166°
2026-05-07 20:28 -38.72708 145.31007 33437 ft 391 kts 167°
2026-05-07 20:28 -38.75272 145.32141 33897 ft 389 kts 167°
2026-05-07 20:28 -38.77824 145.33269 34318 ft 388 kts 167°
2026-05-07 20:29 -38.80370 145.34391 34693 ft 387 kts 167°
2026-05-07 20:29 -38.82917 145.35516 35027 ft 388 kts 167°
2026-05-07 20:29 -38.85470 145.36647 35116 ft 386 kts 166°
2026-05-07 20:30 -38.90514 145.38891 35129 ft 382 kts 167°
2026-05-07 20:30 -38.95519 145.41112 35126 ft 380 kts 166°
2026-05-07 20:31 -39.00520 145.43344 35122 ft 380 kts 166°
2026-05-07 20:31 -39.05518 145.45570 35117 ft 380 kts 166°
2026-05-07 20:32 -39.10517 145.47796 35115 ft 380 kts 166°
2026-05-07 20:32 -39.15516 145.50033 35119 ft 380 kts 166°
2026-05-07 20:33 -39.20510 145.52268 35112 ft 380 kts 166°
2026-05-07 20:33 -39.25461 145.54482 35134 ft 379 kts 167°
2026-05-07 20:34 -39.30447 145.56711 35119 ft 379 kts 167°
2026-05-07 20:34 -39.35425 145.58956 35116 ft 379 kts 167°
2026-05-07 20:35 -39.40399 145.61202 35098 ft 379 kts 167°
2026-05-07 20:35 -39.45374 145.63458 35095 ft 379 kts 167°
2026-05-07 20:36 -39.50346 145.65713 35100 ft 379 kts 167°
2026-05-07 20:36 -39.55324 145.67959 35096 ft 379 kts 167°
2026-05-07 20:37 -39.60300 145.70205 35088 ft 379 kts 167°
2026-05-07 20:37 -39.65272 145.72464 35098 ft 379 kts 167°
2026-05-07 20:38 -39.70234 145.74723 35089 ft 378 kts 167°
2026-05-07 20:38 -39.74356 145.76600 35077 ft 378 kts 167°
2026-05-07 20:39 -39.80125 145.79226 35060 ft 378 kts 167°
2026-05-07 20:39 -39.85091 145.81490 35095 ft 378 kts 166°
2026-05-07 20:40 -39.89253 145.83395 35078 ft 378 kts 166°
2026-05-07 20:40 -39.94215 145.85671 35072 ft 378 kts 166°
2026-05-07 20:41 -39.99145 145.87939 35063 ft 378 kts 166°
2026-05-07 20:41 -40.04107 145.90222 35046 ft 378 kts 166°
2026-05-07 20:42 -40.09067 145.92519 35066 ft 378 kts 166°
2026-05-07 20:42 -40.14024 145.94825 35058 ft 378 kts 166°
2026-05-07 20:43 -40.18983 145.97124 35056 ft 378 kts 166°
2026-05-07 20:43 -40.23945 145.99432 35038 ft 378 kts 166°
2026-05-07 20:44 -40.28902 146.01740 35037 ft 378 kts 166°
2026-05-07 20:44 -40.33859 146.04051 35031 ft 379 kts 166°
2026-05-07 20:45 -40.38821 146.06380 35030 ft 379 kts 166°
2026-05-07 20:45 -40.43784 146.08706 35026 ft 379 kts 166°
2026-05-07 20:46 -40.48750 146.11040 35044 ft 379 kts 166°
2026-05-07 20:46 -40.53713 146.13364 35035 ft 379 kts 166°
2026-05-07 20:47 -40.58644 146.15675 35028 ft 379 kts 166°
2026-05-07 20:47 -40.63602 146.18010 35025 ft 379 kts 166°
2026-05-07 20:48 -40.68558 146.20357 35004 ft 379 kts 166°
2026-05-07 20:48 -40.73513 146.22704 35036 ft 378 kts 165°
2026-05-07 20:49 -40.78468 146.25049 35019 ft 378 kts 166°
2026-05-07 20:49 -40.83420 146.27402 35009 ft 378 kts 165°
2026-05-07 20:50 -40.88366 146.29745 35005 ft 378 kts 166°
2026-05-07 20:50 -40.93309 146.32097 35008 ft 378 kts 165°
2026-05-07 20:51 -40.98255 146.34452 34996 ft 378 kts 165°
2026-05-07 20:51 -41.03199 146.36806 34983 ft 378 kts 165°
2026-05-07 20:52 -41.08141 146.39170 34985 ft 378 kts 165°
2026-05-07 20:52 -41.13044 146.41527 34981 ft 378 kts 165°
2026-05-07 20:53 -41.17966 146.44017 34974 ft 381 kts 160°
2026-05-07 20:53 -41.22756 146.47035 34968 ft 381 kts 160°
2026-05-07 20:54 -41.27551 146.50060 34960 ft 382 kts 160°
2026-05-07 20:54 -41.32348 146.53082 34956 ft 381 kts 160°
2026-05-07 20:55 -41.37142 146.56107 34625 ft 380 kts 161°
2026-05-07 20:55 -41.39526 146.57618 34384 ft 379 kts 161°
2026-05-07 20:55 -41.41894 146.59122 34057 ft 374 kts 160°
2026-05-07 20:55 -41.44227 146.60611 33590 ft 370 kts 159°
2026-05-07 20:56 -41.46534 146.62085 33142 ft 365 kts 160°
2026-05-07 20:56 -41.48814 146.63535 32706 ft 361 kts 161°
2026-05-07 20:56 -41.51065 146.64963 32274 ft 356 kts 161°
2026-05-07 20:56 -41.53295 146.66376 31851 ft 353 kts 161°
2026-05-07 20:57 -41.55501 146.67773 31459 ft 350 kts 161°
2026-05-07 20:57 -41.57692 146.69165 30983 ft 348 kts 161°
2026-05-07 20:57 -41.59868 146.70552 30542 ft 345 kts 161°
2026-05-07 20:57 -41.62023 146.71928 30128 ft 342 kts 161°
2026-05-07 20:58 -41.64164 146.73296 29625 ft 340 kts 161°
2026-05-07 20:58 -41.66289 146.74656 29113 ft 338 kts 161°
2026-05-07 20:58 -41.68403 146.76015 28620 ft 336 kts 161°
2026-05-07 20:58 -41.70507 146.77374 28129 ft 335 kts 161°
2026-05-07 20:59 -41.72596 146.78728 27654 ft 332 kts 161°
2026-05-07 20:59 -41.74672 146.80072 27196 ft 331 kts 161°
2026-05-07 20:59 -41.76742 146.81410 26752 ft 330 kts 161°
2026-05-07 20:59 -41.78782 146.82728 26286 ft 329 kts 161°
2026-05-07 21:00 -41.80837 146.84061 25839 ft 327 kts 161°
2026-05-07 21:00 -41.82880 146.85390 25424 ft 325 kts 161°
2026-05-07 21:00 -41.84913 146.86713 24997 ft 324 kts 161°
2026-05-07 21:00 -41.86935 146.88029 24577 ft 323 kts 161°
2026-05-07 21:01 -41.88949 146.89339 24161 ft 321 kts 161°
2026-05-07 21:01 -41.90955 146.90643 23716 ft 320 kts 160°
2026-05-07 21:01 -41.92951 146.91937 23255 ft 318 kts 160°
2026-05-07 21:01 -41.94930 146.93223 22808 ft 314 kts 160°
2026-05-07 21:02 -41.96887 146.94499 22396 ft 311 kts 160°
2026-05-07 21:02 -41.98831 146.95766 21925 ft 309 kts 160°
2026-05-07 21:02 -42.00756 146.97020 21462 ft 306 kts 160°
2026-05-07 21:02 -42.02663 146.98261 21012 ft 303 kts 160°
2026-05-07 21:03 -42.04555 146.99497 20562 ft 301 kts 160°
2026-05-07 21:03 -42.06434 147.00727 20099 ft 300 kts 160°
2026-05-07 21:03 -42.08309 147.01955 19632 ft 299 kts 160°
2026-05-07 21:03 -42.10180 147.03183 19166 ft 299 kts 160°
2026-05-07 21:04 -42.12047 147.04409 18713 ft 298 kts 160°
2026-05-07 21:04 -42.13916 147.05636 18243 ft 299 kts 160°
2026-05-07 21:04 -42.15783 147.06858 17737 ft 299 kts 160°
2026-05-07 21:04 -42.17575 147.08310 17300 ft 304 kts 150°
2026-05-07 21:05 -42.19173 147.10218 16784 ft 308 kts 146°
2026-05-07 21:05 -42.20747 147.12170 16300 ft 307 kts 146°
2026-05-07 21:05 -42.22314 147.14119 15821 ft 306 kts 146°
2026-05-07 21:05 -42.23870 147.16056 15357 ft 304 kts 146°
2026-05-07 21:06 -42.25407 147.17969 14900 ft 304 kts 146°
2026-05-07 21:06 -42.26982 147.19926 14425 ft 304 kts 146°
2026-05-07 21:06 -42.28523 147.21839 13963 ft 305 kts 146°
2026-05-07 21:06 -42.30084 147.23776 13464 ft 305 kts 146°
2026-05-07 21:07 -42.31669 147.25672 12973 ft 300 kts 151°
2026-05-07 21:07 -42.33412 147.27121 12590 ft 290 kts 159°
2026-05-07 21:07 -42.35163 147.28422 12235 ft 286 kts 159°
2026-05-07 21:07 -42.36901 147.29723 11879 ft 284 kts 158°
2026-05-07 21:08 -42.38620 147.31010 11514 ft 281 kts 159°
2026-05-07 21:08 -42.40328 147.32287 11158 ft 279 kts 159°
2026-05-07 21:08 -42.42020 147.33554 10810 ft 277 kts 159°
2026-05-07 21:08 -42.43702 147.34815 10458 ft 275 kts 159°
2026-05-07 21:09 -42.45387 147.36080 10133 ft 271 kts 159°
2026-05-07 21:09 -42.47000 147.37296 10000 ft 259 kts 159°
2026-05-07 21:09 -42.48544 147.38462 9861 ft 251 kts 159°
2026-05-07 21:09 -42.50069 147.39604 9723 ft 249 kts 159°
2026-05-07 21:10 -42.51583 147.40735 9475 ft 248 kts 159°
2026-05-07 21:10 -42.53094 147.41866 9187 ft 248 kts 159°
2026-05-07 21:10 -42.54609 147.43003 8898 ft 249 kts 159°
2026-05-07 21:10 -42.56128 147.44143 8585 ft 250 kts 159°
2026-05-07 21:11 -42.57652 147.45289 8269 ft 250 kts 159°
2026-05-07 21:11 -42.59161 147.46475 7973 ft 254 kts 153°
2026-05-07 21:11 -42.61895 147.49535 7355 ft 257 kts 149°
2026-05-07 21:12 -42.63279 147.51115 7050 ft 256 kts 149°
2026-05-07 21:12 -42.64647 147.52676 6742 ft 257 kts 149°
2026-05-07 21:12 -42.66024 147.54244 6428 ft 260 kts 149°
2026-05-07 21:12 -42.67388 147.55803 6152 ft 256 kts 149°
2026-05-07 21:13 -42.68740 147.57354 6019 ft 246 kts 149°
2026-05-07 21:13 -42.70015 147.58813 5964 ft 237 kts 149°
2026-05-07 21:13 -42.71274 147.60249 5881 ft 239 kts 150°
2026-05-07 21:13 -42.72556 147.61697 5598 ft 240 kts 150°
2026-05-07 21:14 -42.73824 147.63138 5402 ft 237 kts 150°
2026-05-07 21:14 -42.75100 147.64591 5159 ft 238 kts 150°
2026-05-07 21:14 -42.76375 147.66043 4856 ft 238 kts 150°
2026-05-07 21:14 -42.77638 147.67490 4478 ft 236 kts 150°
2026-05-07 21:15 -42.78868 147.68905 4205 ft 225 kts 150°
2026-05-07 21:15 -42.80030 147.70228 3952 ft 208 kts 155°
2026-05-07 21:15 -42.81253 147.70913 3789 ft 176 kts 182°
2026-05-07 21:15 -42.82403 147.70808 3597 ft 161 kts 202°
2026-05-07 21:16 -42.83341 147.70151 3377 ft 146 kts 218°
2026-05-07 21:16 -42.84140 147.69373 3155 ft 137 kts 217°
2026-05-07 21:16 -42.84898 147.68642 2960 ft 132 kts 218°
2026-05-07 21:16 -42.85635 147.67931 2813 ft 130 kts 218°
2026-05-07 21:17 -42.86371 147.67223 2616 ft 129 kts 218°
2026-05-07 21:17 -42.87098 147.66511 2454 ft 128 kts 220°
2026-05-07 21:17 -42.87743 147.65671 2279 ft 129 kts 228°
2026-05-07 21:17 -42.88263 147.64683 2112 ft 129 kts 237°
2026-05-07 21:18 -42.88646 147.63583 1933 ft 128 kts 244°
2026-05-07 21:18 -42.88880 147.62405 1763 ft 130 kts 253°
2026-05-07 21:18 -42.88950 147.61185 1592 ft 129 kts 263°
2026-05-07 21:18 -42.88859 147.59971 1416 ft 129 kts 272°
2026-05-07 21:19 -42.88610 147.58801 1236 ft 129 kts 282°
2026-05-07 21:19 -42.88212 147.57704 1067 ft 129 kts 290°
2026-05-07 21:19 -42.87679 147.56724 893 ft 129 kts 302°
2026-05-07 21:19 -42.87034 147.55895 760 ft 130 kts 310°
2026-05-07 21:20 -42.86344 147.55090 572 ft 131 kts 309°
2026-05-07 21:20 -42.85753 147.54179 413 ft 126 kts 297°
2026-05-07 21:20 -42.85151 147.53287 248 ft 129 kts 308°
2026-05-07 21:20 -42.84532 147.52432 62 ft 126 kts 308°
2026-05-07 21:21 -42.83979 147.51661 22 ft 82 kts 316°
2026-05-07 21:21 -42.83699 147.51290 24 ft 48 kts 317°
2026-05-07 21:21 -42.83476 147.50984 22 ft 42 kts 316°
2026-05-07 21:21 -42.83346 147.50813 23 ft 21 kts 316°
2026-05-07 21:22 -42.83322 147.50654 22 ft 17 kts 254°
2026-05-07 21:22 -42.83399 147.50550 22 ft 12 kts 205°
2026-05-07 21:22 -42.83470 147.50608 23 ft 14 kts 135°
2026-05-07 21:22 -42.83549 147.50694 22 ft 14 kts 176°
2026-05-07 21:23 -42.83626 147.50622 22 ft 11 kts 224°
2026-05-07 21:23 -42.83654 147.50584 23 ft 2 kts 225°
2026-05-07 21:23 -42.83658 147.50579 22 ft 0 kts 225°
2026-05-07 21:27 -42.83655 147.50584 22 ft 0 kts 225°